Weather in Tushilovka

Russia / Republic of Dagestan     44°18′33″N   46°52′52″E
temp.,
°C
wind,
m/s
gust,
m/s
humid.,
%
clouds,
%
prec.,
mm/h
press.,
hPa
HPBL,
m
19 june, sat
sat1900:00+23ne22690 0.0 101513
03:00+23ene33860 0.0 101533
06:00+26e710710 0.0 1015468
09:00+28e11144121 0.0 1016765
12:00+29e12144121 0.0 1016800
15:00+28e12154839 0.0 1015726
18:00+25ene1116615 0.0 1015509
21:00+24ene1018675 0.0 1014384
20 june, sun
sun2000:00+24e9186919 0.0 1013419
03:00+25e9196699 0.0 1013424
06:00+26ese1018555 0.0 1012538
09:00+29ese1418426 0.0 1013730
12:00+30ese1418365 0.0 1013862
15:00+28ese131839100 0.0 1013819
18:00+27ese11184183 0.0 1013724
21:00+24e817592 0.0 1014452
21 june, mon
mon2100:00+24ese817610 0.0 1013406
03:00+25ese916550 0.0 1013469
06:00+27ese10184910 0.0 1013692
09:00+31ese1217280 0.0 10131123
12:00+32ese1316270 0.0 10131149
15:00+30ese1316300 0.0 10131003
18:00+28ese1117360 0.0 1012812
21:00+25e1018550 0.0 1013505
22 june, tue
tue2200:00+26ese916481 0.0 1012445
03:00+25ese816573 0.0 1012369
06:00+27ese814510 0.0 1012468
09:00+33ese1116300 0.0 10121134
12:00+34ese1215260 0.0 10131316
15:00+33ese1216270 0.0 10121183
18:00+29ese1017400 0.0 1012869
21:00+26e918640 0.0 1012459
23 june, wed
wed2300:00+27ese917540 0.0 1012466
03:00+26ese1021570 0.0 1011564
06:00+29se1220370 0.0 1012957
09:00+32se1319280 0.0 10131123
12:00+32ese1216290 0.0 10131064
15:00+30ese1115370 0.0 1013755
18:00+28ese915400 0.0 1013606
21:00+24e8146494 0.0 1014322